Location: North Mitre
(40.7833°S, 175.4667°E)
Time: 18:12:46
(UTC+00:00)

Cosmos 494 Rocket - Pass Details

Date: 04 August 2024
Orbit: 740 x 767 km, 74.1° (Epoch: 17 September)

Event Time Altitude Azimuth Distance (km) Brightness Sun altitude
Exits shadow 17:36:18 16° 204° (SSW) 1,905 5.8 -19.9°
Maximum altitude 17:40:29 75° 287° (WNW) 788 3.8 -19.1°
Drops below altitude 10° 17:45:39 10° 11° (N) 2,283 6.7 -18.2°
Sets 17:48:00 0° 13° (NNE) 3,204 7.5 -17.7°
